Time,TemperatureF,DewpointF,PressureIn,WindDirection,WindDirectionDegrees,WindSpeedMPH,WindSpeedGustMPH,Humidity,HourlyPrecipIn,Conditions,Clouds,dailyrainin,SoftwareType,DateUTC
2013-02-01 00:00:00,-1.0,-4.2,30.36,North,0,4.0,18.0,86,0.00,,,-99.99,Weather View 32 v60,2013-02-01 06:00:00,
2013-02-01 00:30:00,-1.0,-3.9,30.37,North,0,5.0,18.0,87,0.00,,,-99.99,Weather View 32 v60,2013-02-01 06:30:00,
2013-02-01 01:00:00,-1.0,-3.9,30.38,NNW,338,0.0,13.0,87,0.00,,,-99.99,Weather View 32 v60,2013-02-01 07:00:00,
2013-02-01 01:30:00,-2.0,-4.9,30.39,NNE,22,4.0,13.0,87,0.00,,,-99.99,Weather View 32 v60,2013-02-01 07:30:00,
2013-02-01 02:00:00,-2.0,-4.9,30.40,West,270,0.0,13.0,87,0.00,,,-99.99,Weather View 32 v60,2013-02-01 08:00:00,
2013-02-01 02:30:00,-2.0,-4.9,30.41,NNW,338,5.0,14.0,87,0.00,,,-99.99,Weather View 32 v60,2013-02-01 08:30:00,
2013-02-01 03:00:00,-3.0,-5.9,30.42,NNW,338,6.0,14.0,87,0.00,,,-99.99,Weather View 32 v60,2013-02-01 09:00:00,
2013-02-01 03:30:00,-3.0,-5.9,30.43,NNW,338,5.0,13.0,87,0.00,,,-99.99,Weather View 32 v60,2013-02-01 09:30:00,
2013-02-01 04:00:00,-4.0,-7.1,30.44,NE,45,0.0,11.0,86,0.00,,,-99.99,Weather View 32 v60,2013-02-01 10:00:00,
2013-02-01 04:30:00,-4.0,-7.1,30.45,North,0,0.0,11.0,86,0.00,,,-99.99,Weather View 32 v60,2013-02-01 10:30:00,
2013-02-01 05:00:00,-5.0,-7.9,30.46,North,0,0.0,11.0,87,0.00,,,-99.99,Weather View 32 v60,2013-02-01 11:00:00,
2013-02-01 05:30:00,-5.0,-7.6,30.46,NNW,338,2.0,11.0,88,0.00,,,-99.99,Weather View 32 v60,2013-02-01 11:30:00,
2013-02-01 06:00:00,-6.0,-8.6,30.47,NNW,338,5.0,10.0,88,0.00,,,-99.99,Weather View 32 v60,2013-02-01 12:00:00,
2013-02-01 06:30:00,-6.0,-8.4,30.47,North,0,0.0,10.0,89,0.00,,,-99.99,Weather View 32 v60,2013-02-01 12:30:00,
2013-02-01 07:00:00,-7.0,-9.4,30.48,NNW,338,0.0,8.0,89,0.00,,,-99.99,Weather View 32 v60,2013-02-01 13:00:00,
2013-02-01 07:30:00,-7.0,-9.2,30.50,WNW,292,4.0,7.0,90,0.00,,,-99.99,Weather View 32 v60,2013-02-01 13:30:00,
2013-02-01 08:00:00,-6.0,-8.4,30.50,NNE,22,0.0,7.0,89,0.00,,,-99.99,Weather View 32 v60,2013-02-01 14:00:00,
2013-02-01 08:30:00,-5.0,-7.9,30.50,North,0,8.0,10.0,87,0.00,,,-99.99,Weather View 32 v60,2013-02-01 14:30:00,
2013-02-01 09:00:00,-4.0,-7.8,30.50,NW,315,0.0,15.0,83,0.00,,,-99.99,Weather View 32 v60,2013-02-01 15:00:00,
2013-02-01 09:30:00,-3.0,-6.9,30.49,North,0,3.0,15.0,83,0.00,,,-99.99,Weather View 32 v60,2013-02-01 15:30:00,
2013-02-01 10:00:00,-3.0,-7.6,30.50,NNW,338,0.0,14.0,80,0.00,,,-99.99,Weather View 32 v60,2013-02-01 16:00:00,
2013-02-01 10:30:00,0.0,-4.7,30.50,NNW,338,0.0,14.0,80,0.00,,,-99.99,Weather View 32 v60,2013-02-01 16:30:00,
2013-02-01 11:00:00,0.0,-4.4,30.48,NW,315,10.0,14.0,81,0.00,,,-99.99,Weather View 32 v60,2013-02-01 17:00:00,
2013-02-01 11:30:00,1.0,-3.7,30.47,NNW,338,0.0,11.0,80,0.00,,,-99.99,Weather View 32 v60,2013-02-01 17:30:00,
2013-02-01 12:00:00,0.0,-5.2,30.46,NW,315,6.0,11.0,78,0.00,,,-99.99,Weather View 32 v60,2013-02-01 18:00:00,
2013-02-01 12:30:00,1.0,-4.5,30.44,WNW,292,9.0,11.0,77,0.00,,,-99.99,Weather View 32 v60,2013-02-01 18:30:00,
2013-02-01 13:00:00,3.0,-2.8,30.44,NNW,338,6.0,12.0,76,0.00,,,-99.99,Weather View 32 v60,2013-02-01 19:00:00,
2013-02-01 13:30:00,3.0,-3.4,30.43,WNW,292,4.0,14.0,74,0.00,,,-99.99,Weather View 32 v60,2013-02-01 19:30:00,
2013-02-01 14:00:00,5.0,-1.7,30.42,NW,315,8.0,14.0,73,0.00,,,-99.99,Weather View 32 v60,2013-02-01 20:00:00,
2013-02-01 14:30:00,4.0,-2.7,30.43,WNW,292,5.0,13.0,73,0.00,,,-99.99,Weather View 32 v60,2013-02-01 20:30:00,
2013-02-01 15:00:00,4.0,-2.7,30.42,WNW,292,3.0,15.0,73,0.00,,,-99.99,Weather View 32 v60,2013-02-01 21:00:00,
2013-02-01 15:30:00,3.0,-3.7,30.41,NW,315,3.0,15.0,73,0.00,,,-99.99,Weather View 32 v60,2013-02-01 21:30:00,
2013-02-01 16:00:00,3.0,-3.4,30.40,NNW,338,0.0,14.0,74,0.00,,,-99.99,Weather View 32 v60,2013-02-01 22:00:00,
2013-02-01 16:30:00,3.0,-3.1,30.39,WNW,292,0.0,13.0,75,0.00,,,-99.99,Weather View 32 v60,2013-02-01 22:30:00,
2013-02-01 17:00:00,3.0,-2.8,30.39,WSW,248,0.0,9.0,76,0.00,,,-99.99,Weather View 32 v60,2013-02-01 23:00:00,
2013-02-01 17:30:00,2.0,-3.5,30.39,SW,225,0.0,8.0,77,0.00,,,-99.99,Weather View 32 v60,2013-02-01 23:30:00,
2013-02-01 18:00:00,2.0,-3.5,30.39,West,270,6.0,7.0,77,0.00,,,-99.99,Weather View 32 v60,2013-02-02 00:00:00,
2013-02-01 18:30:00,3.0,-2.3,30.39,West,270,4.0,7.0,78,0.00,,,-99.99,Weather View 32 v60,2013-02-02 00:30:00,
2013-02-01 19:00:00,3.0,-2.3,30.39,West,270,0.0,10.0,78,0.00,,,-99.99,Weather View 32 v60,2013-02-02 01:00:00,
2013-02-01 19:30:00,3.0,-2.3,30.39,WNW,292,0.0,10.0,78,0.00,,,-99.99,Weather View 32 v60,2013-02-02 01:30:00,
2013-02-01 20:00:00,3.0,-1.8,30.39,West,270,2.0,10.0,80,0.00,,,-99.99,Weather View 32 v60,2013-02-02 02:00:00,
2013-02-01 20:30:00,3.0,-1.0,30.38,WNW,292,4.0,10.0,83,0.00,,,-99.99,Weather View 32 v60,2013-02-02 02:30:00,
2013-02-01 21:00:00,3.0,-0.2,30.38,WNW,292,0.0,8.0,86,0.00,,,-99.99,Weather View 32 v60,2013-02-02 03:00:00,
2013-02-01 21:30:00,3.0,0.3,30.37,WNW,292,3.0,7.0,88,0.00,,,-99.99,Weather View 32 v60,2013-02-02 03:30:00,
2013-02-01 22:00:00,3.0,0.7,30.36,West,270,0.0,6.0,90,0.00,,,-99.99,Weather View 32 v60,2013-02-02 04:00:00,
2013-02-01 22:30:00,4.0,2.0,30.36,WSW,248,0.0,8.0,91,0.00,,,-99.99,Weather View 32 v60,2013-02-02 04:30:00,
2013-02-01 23:00:00,4.0,2.0,30.35,South,180,0.0,8.0,91,0.00,,,-99.99,Weather View 32 v60,2013-02-02 05:00:00,
2013-02-01 23:30:00,4.0,2.0,30.34,SW,225,0.0,0.0,91,0.00,,,-99.99,Weather View 32 v60,2013-02-02 05:30:00,